Погода в Ойкас-Кибеках

Россия / Чувашская Республика     55°36′52″N   47°10′08″E
темп.,
°C
ветер,
м/с
пор.,
м/с
влажн.,
%
обл.,
%
осадки,
мм/ч
давл.,
гПа
погр.,
м
9 мая, вс
вс900:00+10юв5129168 0.0 1012237
03:00+9юв498794 0.0 1011132
06:00+12ююв5118298 0.0 1011288
09:00+13ююв51275100 0.0 1011344
12:00+19ююв81160100 0.0 10101000
15:00+19ююв61065100 0.0 10111219
18:00+17ююв61172100 1.4 1011367
21:00+14юз2489100 4.7 101372
10 мая, пн
пн1000:00+11з369589 0.0 1015220
03:00+9юз2396100 0.1 101895
06:00+10зсз4692100 0.0 1019263
09:00+13ссз4483100 0.0 1020548
12:00+10ссз6791100 0.1 1023412
15:00+10с7988100 0.2 1024486
18:00+9с5888100 0.0 1026526
21:00+8ссв61090100 0.0 1027471
11 мая, вт
вт1100:00+7ссв5991100 0.0 1028420
03:00+7св5888100 0.0 1029435
06:00+8св698691 0.0 1030418
09:00+12св567235 0.0 1030634
12:00+16св556162 0.0 1030833
15:00+18св5556100 0.0 1029984
18:00+16всв3669100 0.0 1029178
21:00+12всв4876100 0.0 1030135
12 мая, ср
ср1200:00+10всв498184 0.0 1030151
03:00+9всв410830 0.0 1030163
06:00+12в511803 0.0 1030273
09:00+17в68685 0.0 1030541
12:00+21в66605 0.0 10301076
15:00+22в555893 0.0 10291388
18:00+20в47705 0.0 1028222
21:00+15в498018 0.0 1028143
13 мая, чт
чт1300:00+13в48715 0.0 1028121
03:00+12в4869100 0.0 1028115
06:00+13в497228 0.0 1028223
09:00+19вюв5756100 0.0 1027474
12:00+22вюв5651100 0.0 1027993
15:00+23юв575299 0.0 10261670
18:00+20юв376972 0.0 1025205
21:00+16юв3574100 0.0 102565